TimeAKST,TemperatureF,Dew PointF,Humidity,Sea Level PressureIn,VisibilityMPH,Wind Direction,Wind SpeedMPH,Gust SpeedMPH,PrecipitationIn,Events,Conditions,WindDirDegrees,DateUTC
12:54 AM,32.0,23.0,69,30.09,10.0,NW,9.2,17.3,N/A,,Overcast,320,2013-11-13 09:54:00
1:54 AM,32.0,23.0,69,30.09,10.0,NNW,11.5,17.3,N/A,,Overcast,330,2013-11-13 10:54:00
2:54 AM,32.0,23.0,69,30.12,10.0,NW,10.4,19.6,N/A,,Overcast,310,2013-11-13 11:54:00
3:54 AM,32.0,23.0,69,30.12,10.0,NW,12.7,19.6,N/A,,Mostly Cloudy,320,2013-11-13 12:54:00
4:54 AM,32.0,23.0,69,30.12,10.0,Variable,6.9,-,N/A,,Overcast,0,2013-11-13 13:54:00
5:54 AM,32.0,21.9,66,30.12,10.0,NW,8.1,-,N/A,,Overcast,320,2013-11-13 14:54:00
6:54 AM,32.0,21.0,64,30.14,10.0,WNW,11.5,-,N/A,,Overcast,300,2013-11-13 15:54:00
7:54 AM,32.0,19.0,59,30.14,10.0,NW,11.5,17.3,N/A,,Overcast,310,2013-11-13 16:54:00
8:54 AM,32.0,19.0,59,30.16,10.0,NW,9.2,19.6,N/A,,Mostly Cloudy,310,2013-11-13 17:54:00
9:54 AM,30.0,21.0,69,30.17,10.0,WNW,12.7,-,N/A,,Clear,300,2013-11-13 18:54:00
10:54 AM,32.0,19.9,61,30.17,10.0,WNW,12.7,-,N/A,,Scattered Clouds,300,2013-11-13 19:54:00
11:54 AM,32.0,21.0,64,30.18,10.0,WNW,10.4,-,N/A,,Clear,290,2013-11-13 20:54:00
12:54 PM,33.1,19.9,59,30.19,10.0,WNW,11.5,-,N/A,,Clear,290,2013-11-13 21:54:00
1:54 PM,32.0,19.9,61,30.19,10.0,WNW,10.4,-,N/A,,Clear,290,2013-11-13 22:54:00
2:54 PM,30.9,21.0,67,30.20,10.0,WNW,9.2,-,N/A,,Clear,300,2013-11-13 23:54:00
3:54 PM,30.0,21.0,69,30.22,10.0,WNW,9.2,-,N/A,,Clear,290,2013-11-14 00:54:00
4:54 PM,30.9,19.9,64,30.21,10.0,WNW,9.2,-,N/A,,Clear,300,2013-11-14 01:54:00
5:54 PM,28.0,21.0,75,30.21,10.0,Calm,Calm,-,N/A,,Scattered Clouds,0,2013-11-14 02:54:00
6:54 PM,28.9,21.9,75,30.22,10.0,WNW,8.1,-,N/A,,Overcast,290,2013-11-14 03:54:00
7:54 PM,28.0,21.0,75,30.23,10.0,WNW,9.2,-,N/A,,Overcast,290,2013-11-14 04:54:00
8:54 PM,28.0,21.9,78,30.23,10.0,WNW,9.2,-,N/A,,Overcast,290,2013-11-14 05:54:00
9:54 PM,28.9,21.0,72,30.22,10.0,WNW,5.8,-,N/A,,Overcast,300,2013-11-14 06:54:00
10:54 PM,28.9,21.0,72,30.23,10.0,WNW,10.4,-,N/A,,Overcast,290,2013-11-14 07:54:00
11:54 PM,28.0,21.0,75,30.24,10.0,WNW,10.4,-,N/A,,Overcast,290,2013-11-14 08:54:00